SCP
0 -0 -0 -0 -0 -0 -0 -0 -0 -0 -0 -0 -0 -0 -0 -0 -0 -0 -0 -0 -0 -0 -0 -0 -0 -0 -0 -0 -0 -0 -0 -0 -0 -0 -0 -0 -0 -0 -0 -0 -0 -0 -0
0 0 -0 -0 -0 -0 -0 -0 -0 -0 -0 -0 -0 -0 -0 -0 -0 -0 -0 -0 -0 -0 -0 -0 -0 -0 -0 -0 -0 -0 -0 -0 -0 -0 -0 -0 -0 -0 -0 -0 -0 -0 -0
0 0 0 -0 -0 -0 -0 -0 -0 -0 -0 -0 -0 -0 -0 -0 -0 -0 -0 -0 -0 -0 -0 -0 -0 -0 -0 -0 -0 -0 -0 -0 -0 -0 -0 -0 -0 -0 -0 -0 -0 -0 -0
0 0 0 -0 -0 -0 -0 -0 -0 -0 -0 -0 -0 -0 -0 -0 -0 -0 -0 -0 -0 -0 -0 -0 -0 -0 -0 -0 -0 -0 -0 -0 -0 -0 -0 -0 -0 -0 -0 -0 -0 -0 -0
0 0 0 0 -0 -0 -0 -0 -0 0 0 -0 -0 -0 -0 -0 -0 -0 -0 -0 -0 -0 -0 -0 -0 -0 -0 -0 -0 -0 -0 -0 -0 -0 -0 -0 -0 -0 -0 -0 -0 -0 -0
0 0 0 0 0 -0 -0 -0 -0 0 0 0 -0 -0 -0 -0 -0 -0 -0 -0 -0 -0 -0 -0 -0 -0 -0 -0 -0 -0 -0 -0 -0 0 -0 -0 -0 -0 -0 -0 -0 -0 -0
0 0 0 0 0 0 0 -0 -0 0 0 0 -0 -0 -0 -0 -0 -0 -0 -0 -0 -0 -0 -0 -0 -0 -0 -0 -0 -0 -0 -0 -0 -0 0 0 -0 -0 -0 -0 -0 -0 -0
0 0 0 0 0 0 0 0 0 0 0 0 0 -0 -0 -0 -0 0 -0 -0 -0 -0 -0 -0 -0 -0 -0 -0 -0 -0 -0 -0 0 0 0 0 -0 -0 -0 -0 -0 -0 -0
0 0 0 0 0 0 0 0 0 0 0 0 0 0 -0 -0 -0 0 0 -0 -0 -0 -0 -0 -0 -0 -0 -0 -0 -0 -0 -0 0 0 0 0 -0 -0 -0 -0 -0 -0 -0
0 0 0 0 0 0 0 0 0 0 0 0 0 0 0 0 -0 0 0 0 -0 -0 -0 -0 -0 -0 -0 0 0 0 0 -0 0 -0 0 -0 -0 -0 -0 -0 -0 0 0
0 0 0 0 0 0 0 0 0 0 0 0 0 0 0 0 0 0 0 0 0 -0 -0 -0 -0 0 0 0 0 0 -0 0 0 0 0 -0 -0 -0 -0 0 0 0 0
0 0 0 0 0 0 0 0 0 0 0 0 0 0 0 0 0 0 0 0 0 0 0 0 0 0 0 0 0 0 0 0 0 -0 0 -0 -0 0 0 0 0 0 0
0 0 0 0 0 0 0 0 0 0 0 0 0 0 0 0 0 0 0 0 0 0 0 0 0 0 0 0 0 0 0 0 0 -0 0 0 0 0 0 0 0 0 0
0 0 0 0 0 0 0 0 0 0 0 0 0 0 0 0 0 0 0 0 0 0 0 0 0 0 0 0 0 0 0 0 0 0 0 0 0 0 0 0 0 0 0
0 0 0 0 0 0 0 0 0 0 0 0 0 0 0 0 0 0 0 0 0 0 0 0 0 0 0 0 0 0 0 0 0 0 0 0 0 0 0 0 0 0 0
0 0 0 0 0 0 0 0 0 0 0 0 0 0 0 0 0 0 0 0 0 0 0 0 0 0 0 0 0 0 0 0 0 0 0 0 0 0 0 0 0 0 0
0 0 0 0 0 0 0 0 0 0 0 0 0 0 0 0 0 0 0 0 0 0 0 0 0 0 0 0 0 0 0 0 0 0 0 0 0 0 0 0 0 0 0
0 0 0 0 0 0 0 0 0 0 0 0 0 0 0 0 0 0 0 0 0 0 0 0 0 0 0 0 0 0 0 0 0 0 0 0 0 0 0 0 0 0 0
0 0 0 0 0 0 0 0 0 0 0 0 0 0 0 0 0 0 0 0 0 0 0 0 0 0 0 0 0 0 0 0 0 0 0 0 0 0 0 0 0 0 0
0 0 0 0 0 0 0 0 0 0 0 0 0 0 0 0 0 0 0 0 0 0 0 0 0 0 0 0 0 0 0 0 0 0 0 0 0 0 0 0 0 0 0
0 0 0 0 0 0 0 0 0 0 0 0 0 0 0 0 0 0 0 0 0 0 0 0 0 0 0 0 0 0 0 0 0 0 0 0 0 0 0 0 0 0 0
0 0 0 0 0 0 0 0 0 0 0 0 0 0 0 0 0 0 0 0 0 0 0 0 0 0 0 0 0 0 0 0 0 0 0 0 0 0 0 0 0 0 0
0 0 0 0 0 0 0 0 0 0 0 0 0 0 0 0 0 0 0 0 0 0 0 0 0 0 0 0 0 0 0 0 0 0 0 0 0 0 0 0 0 0 0
0 0 0 0 0 0 0 0 0 0 0 0 0 0 0 0 0 0 0 0 0 0 0 0 0 0 0 0 0 0 0 0 0 0 0 0 0 0 0 0 0 0 0
0 0 0 0 0 0 0 0 0 0 0 0 0 0 0 0 0 0 0 0 0 0 0 0 0 0 0 0 0 0 0 0 0 0 0 0 0 0 0 0 0 0 0
0 0 0 0 0 0 0 0 0 0 0 0 0 0 0 0 0 0 0 0 0 0 0 0 0 0 0 0 0 0 0 0 0 0 0 0 0 0 0 0 0 0 0
Wind_Speed_500mb
36 54 52 43 40 38 30 21 12 10 7 19 29 28 44 44 42 41 44 41 46 41 38 41 46 44 40 42 41 39 33 37 39 49 40 38 38 42 41 40 41 39 40
41 55 53 44 42 36 28 18 12 9 15 24 28 35 41 44 43 39 37 35 38 35 28 30 36 35 34 32 30 34 38 40 51 47 44 36 38 37 42 40 45 39 36
37 60 50 45 43 35 24 16 9 12 28 31 31 39 38 41 40 35 34 29 25 28 23 16 18 23 26 29 29 31 38 45 43 42 43 36 35 37 32 38 36 32 35
41 60 52 46 42 32 23 14 11 21 31 29 31 40 34 34 34 32 33 30 25 23 22 17 20 18 17 27 26 31 36 39 37 33 36 37 36 36 36 32 32 35 31
49 54 51 50 40 31 23 16 13 18 32 34 39 40 40 26 26 24 23 21 20 25 24 25 28 26 24 32 32 32 32 29 32 34 34 31 31 29 27 30 27 26 30
50 55 54 48 41 33 24 18 15 30 27 33 43 39 36 28 26 32 25 34 36 34 28 31 35 29 27 34 37 37 34 30 31 34 33 33 31 28 31 28 29 28 29
54 55 54 48 40 33 25 17 18 31 27 34 38 38 31 38 33 29 31 33 35 32 26 29 32 28 30 41 45 36 30 32 23 31 30 23 27 26 24 24 25 24 23
48 54 56 49 40 33 25 20 19 33 26 37 33 38 31 44 37 29 28 34 35 32 28 31 32 28 32 48 38 36 34 33 25 25 31 29 23 23 21 21 21 18 18
41 47 54 50 40 35 25 23 22 32 31 34 35 36 38 36 32 30 29 37 36 39 31 26 29 29 38 40 40 37 29 27 22 26 26 26 23 20 18 18 15 14 13
47 44 53 55 49 40 32 28 26 32 37 36 36 36 38 37 37 33 31 34 34 37 36 31 29 31 45 41 39 35 31 28 19 17 23 22 19 14 14 12 10 10 10
53 50 55 58 54 44 39 34 31 31 35 37 37 37 39 36 37 37 33 31 34 33 30 28 28 33 41 38 39 34 27 23 19 18 16 13 14 9 8 9 9 10 11
56 56 57 60 55 48 44 43 37 39 39 41 39 38 39 38 37 37 40 32 32 31 28 26 27 30 34 34 33 28 22 20 14 11 11 9 3 5 7 9 10 11 14
56 58 60 64 58 55 53 51 46 44 41 38 34 41 43 41 38 37 39 31 31 30 30 29 26 24 24 24 25 21 16 15 10 9 6 5 5 7 10 13 14 15 15
57 61 60 61 64 61 56 56 51 50 47 44 39 44 45 42 36 38 35 31 30 29 29 29 27 23 22 19 17 14 12 9 6 3 4 6 9 12 14 16 18 19 19
59 65 64 63 62 68 66 62 57 55 51 45 45 46 45 45 42 39 36 36 34 34 31 29 27 25 22 19 17 14 11 9 8 8 8 10 13 15 17 18 20 21 22
64 67 70 68 65 70 72 65 64 61 54 50 45 52 49 49 46 45 42 42 40 37 34 30 26 25 23 20 17 14 12 10 11 13 14 15 17 19 21 21 22 23 23
67 67 73 75 72 73 75 72 70 66 59 55 47 46 47 52 51 46 48 46 44 40 37 35 32 28 24 21 19 17 15 15 15 17 18 19 21 22 22 23 23 23 22
66 71 74 77 80 81 80 77 76 72 65 62 53 48 44 46 57 53 52 49 46 45 42 39 34 30 27 24 22 19 18 18 18 18 19 20 21 21 18 15 13 12 13
72 72 77 81 84 85 84 78 79 77 70 68 63 54 46 46 56 64 59 53 50 49 46 41 38 34 31 28 24 21 19 18 20 20 19 19 18 10 6 3 4 5 7
79 75 75 79 84 87 86 80 82 83 79 76 72 67 54 49 53 63 63 58 56 53 49 47 43 38 34 30 26 22 21 22 22 20 18 12 7 5 3 1 3 9 11
89 87 78 81 83 90 98 95 90 93 92 86 82 74 62 55 54 59 62 61 61 57 51 47 45 43 39 34 29 25 24 23 21 18 12 11 9 7 6 5 8 12 13
97 93 84 83 84 93 100 102 96 93 90 95 88 80 71 65 59 58 63 65 64 60 56 54 53 48 42 39 31 26 15 23 22 17 15 13 12 11 11 10 14 15 16
104 101 92 84 86 91 96 104 97 86 91 96 92 91 87 76 68 64 63 66 65 60 60 58 56 52 48 45 41 27 15 14 19 18 15 14 15 15 13 15 18 17 16
94 104 97 90 87 90 96 103 105 106 109 108 108 103 95 86 78 70 65 63 64 63 63 60 57 55 51 50 45 45 40 20 16 16 19 15 13 12 12 14 17 16 11
79 94 101 98 92 88 97 103 104 107 110 96 102 110 105 96 89 82 75 71 71 68 63 61 60 58 58 55 53 47 47 44 36 23 20 26 22 17 14 17 16 13 10
70 88 104 106 99 94 97 102 104 111 110 106 105 111 113 106 98 93 85 83 77 74 70 65 59 58 59 57 56 53 51 49 48 43 36 29 25 20 18 17 15 14 11
Wind_Direction_500mb
173 180 173 168 161 166 158 157 136 113 84 124 126 128 140 128 120 125 125 119 112 113 114 114 110 110 112 108 111 109 125 118 111 106 104 103 100 91 95 89 91 87 90
165 178 175 172 169 172 170 158 144 126 119 124 135 136 146 137 134 138 129 131 126 117 123 126 126 121 126 130 124 113 109 108 120 104 113 107 100 100 97 91 94 89 80
174 175 175 173 175 177 171 163 148 125 123 121 121 122 132 146 145 143 145 148 155 138 127 142 154 137 136 139 131 127 115 112 117 112 108 103 108 99 102 97 99 103 96
170 172 174 173 178 177 170 170 147 143 152 133 137 121 122 157 156 162 154 148 147 141 144 146 130 144 139 122 134 136 136 113 114 128 110 109 112 110 111 109 116 113 108
172 174 176 177 177 174 172 171 155 148 136 141 140 130 141 154 151 168 169 175 153 131 137 130 121 129 127 120 122 131 143 117 113 113 112 109 114 113 110 105 107 110 95
177 177 176 178 179 176 174 170 151 149 156 159 144 141 150 157 146 135 138 138 132 136 134 130 133 135 122 121 120 116 112 95 106 104 102 106 102 104 105 103 102 107 96
173 177 179 179 180 177 175 169 157 157 169 148 151 154 153 136 148 152 142 131 132 137 142 129 133 136 132 130 121 119 121 120 120 117 114 120 105 102 108 101 99 99 92
171 178 182 181 181 181 176 170 162 163 171 160 160 161 154 146 157 155 160 143 141 132 142 141 138 146 139 138 125 126 117 125 133 129 130 107 104 107 102 105 102 104 96
177 180 185 180 183 190 183 175 166 164 171 167 166 164 157 162 153 154 145 145 150 140 142 142 145 137 144 136 124 133 139 147 133 123 122 118 111 108 105 98 94 90 80
185 190 193 185 187 191 195 180 172 170 174 173 172 172 165 162 157 162 151 151 147 143 152 156 146 149 144 145 137 135 130 133 132 113 125 125 137 117 102 97 84 66 51
190 193 196 191 188 192 194 188 180 179 181 180 176 171 167 169 165 166 157 158 155 152 150 145 140 140 143 147 151 150 144 142 130 128 136 123 126 111 92 65 45 27 14
196 197 198 198 196 198 200 189 191 183 184 192 185 179 173 172 173 169 164 167 163 154 144 142 145 144 146 149 156 164 153 150 149 133 155 161 138 56 23 14 2 355 357
201 196 200 203 203 202 206 194 197 194 193 196 202 194 180 181 185 176 179 178 169 151 153 151 153 154 155 155 161 159 157 159 166 160 181 215 267 299 311 315 316 320 322
204 201 203 203 205 208 210 206 209 203 199 200 202 206 192 191 191 191 192 192 187 172 167 164 160 162 161 163 162 167 175 179 198 205 229 268 281 286 292 298 302 305 308
211 204 210 208 209 212 208 211 214 217 208 206 205 214 211 198 199 202 200 200 195 188 181 177 174 175 174 176 176 177 188 205 227 255 267 272 278 283 285 287 289 293 296
219 212 211 214 212 215 213 214 216 219 213 209 212 214 216 207 205 204 209 202 199 194 190 185 188 187 187 190 193 199 208 230 248 264 272 277 281 283 284 285 286 287 291
223 220 216 214 213 214 219 217 219 219 215 212 217 214 218 215 209 209 207 203 201 200 199 198 198 198 200 205 209 213 227 239 252 262 272 279 282 282 283 285 287 287 288
225 224 221 216 213 217 219 218 219 220 220 218 219 218 220 217 214 211 213 211 208 205 206 206 207 209 211 215 222 228 238 247 257 267 274 279 281 284 287 286 286 294 294
226 227 221 222 217 214 219 220 222 219 223 220 218 228 224 216 214 214 216 218 217 212 211 211 213 216 220 224 229 238 247 255 261 268 274 277 279 279 284 257 292 318 329
225 228 227 223 222 220 216 219 221 223 226 224 222 224 230 221 216 215 217 219 221 219 216 215 216 220 224 227 232 239 248 258 266 272 279 272 231 232 219 272 338 328 320
223 221 224 224 223 217 217 216 218 217 221 221 226 226 226 231 222 219 219 219 221 222 221 221 220 221 224 227 232 237 249 253 253 270 246 226 206 211 210 250 309 317 319
222 220 222 226 224 219 219 220 222 220 224 224 224 228 227 232 228 226 223 220 222 222 220 222 224 223 223 226 229 230 236 243 244 232 231 218 211 227 242 264 304 319 317
220 220 222 227 227 223 219 218 219 221 219 220 223 228 228 230 232 228 227 225 225 224 225 226 227 227 227 228 227 218 202 210 195 210 207 216 231 236 251 282 302 309 311
225 224 225 228 228 226 220 216 214 216 217 223 227 225 229 229 230 231 230 229 229 228 227 227 228 229 230 232 226 226 228 219 195 190 206 207 217 229 256 275 281 292 289
228 226 227 227 228 228 222 219 214 216 220 223 220 227 229 230 229 229 230 231 229 229 230 229 229 228 232 233 234 234 231 227 224 210 196 204 203 220 242 269 284 275 287
242 231 228 224 228 229 228 224 220 219 222 217 219 225 229 229 228 229 230 232 234 235 233 233 233 234 236 236 238 238 238 234 233 226 217 207 205 204 239 260 262 269 280
Wind_Speed_850mb
36 54 52 43 40 38 30 21 12 10 7 19 29 28 44 44 42 41 44 41 46 41 38 41 46 44 40 42 41 39 33 37 39 49 40 38 38 42 41 40 41 39 40
41 55 53 44 42 36 28 18 12 9 15 24 28 35 41 44 43 39 37 35 38 35 28 30 36 35 34 32 30 34 38 40 51 47 44 36 38 37 42 40 45 39 36
37 60 50 45 43 35 24 16 9 12 28 31 31 39 38 41 40 35 34 29 25 28 23 16 18 23 26 29 29 31 38 45 43 42 43 36 35 37 32 38 36 32 35
41 60 52 46 42 32 23 14 11 21 31 29 31 40 34 34 34 32 33 30 25 23 22 17 20 18 17 27 26 31 36 39 37 33 36 37 36 36 36 32 32 35 31
49 54 51 50 40 31 23 16 13 18 32 34 39 40 40 26 26 24 23 21 20 25 24 25 28 26 24 32 32 32 32 29 32 34 34 31 31 29 27 30 27 26 30
50 55 54 48 41 33 24 18 15 30 27 33 43 39 36 28 26 32 25 34 36 34 28 31 35 29 27 34 37 37 34 30 31 34 33 33 31 28 31 28 29 28 29
54 55 54 48 40 33 25 17 18 31 27 34 38 38 31 38 33 29 31 33 35 32 26 29 32 28 30 41 45 36 30 32 23 31 30 23 27 26 24 24 25 24 23
48 54 56 49 40 33 25 20 19 33 26 37 33 38 31 44 37 29 28 34 35 32 28 31 32 28 32 48 38 36 34 33 25 25 31 29 23 23 21 21 21 18 18
41 47 54 50 40 35 25 23 22 32 31 34 35 36 38 36 32 30 29 37 36 39 31 26 29 29 38 40 40 37 29 27 22 26 26 26 23 20 18 18 15 14 13
47 44 53 55 49 40 32 28 26 32 37 36 36 36 38 37 37 33 31 34 34 37 36 31 29 31 45 41 39 35 31 28 19 17 23 22 19 14 14 12 10 10 10
53 50 55 58 54 44 39 34 31 31 35 37 37 37 39 36 37 37 33 31 34 33 30 28 28 33 41 38 39 34 27 23 19 18 16 13 14 9 8 9 9 10 11
56 56 57 60 55 48 44 43 37 39 39 41 39 38 39 38 37 37 40 32 32 31 28 26 27 30 34 34 33 28 22 20 14 11 11 9 3 5 7 9 10 11 14
56 58 60 64 58 55 53 51 46 44 41 38 34 41 43 41 38 37 39 31 31 30 30 29 26 24 24 24 25 21 16 15 10 9 6 5 5 7 10 13 14 15 15
57 61 60 61 64 61 56 56 51 50 47 44 39 44 45 42 36 38 35 31 30 29 29 29 27 23 22 19 17 14 12 9 6 3 4 6 9 12 14 16 18 19 19
59 65 64 63 62 68 66 62 57 55 51 45 45 46 45 45 42 39 36 36 34 34 31 29 27 25 22 19 17 14 11 9 8 8 8 10 13 15 17 18 20 21 22
64 67 70 68 65 70 72 65 64 61 54 50 45 52 49 49 46 45 42 42 40 37 34 30 26 25 23 20 17 14 12 10 11 13 14 15 17 19 21 21 22 23 23
67 67 73 75 72 73 75 72 70 66 59 55 47 46 47 52 51 46 48 46 44 40 37 35 32 28 24 21 19 17 15 15 15 17 18 19 21 22 22 23 23 23 22
66 71 74 77 80 81 80 77 76 72 65 62 53 48 44 46 57 53 52 49 46 45 42 39 34 30 27 24 22 19 18 18 18 18 19 20 21 21 18 15 13 12 13
72 72 77 81 84 85 84 78 79 77 70 68 63 54 46 46 56 64 59 53 50 49 46 41 38 34 31 28 24 21 19 18 20 20 19 19 18 10 6 3 4 5 7
79 75 75 79 84 87 86 80 82 83 79 76 72 67 54 49 53 63 63 58 56 53 49 47 43 38 34 30 26 22 21 22 22 20 18 12 7 5 3 1 3 9 11
89 87 78 81 83 90 98 95 90 93 92 86 82 74 62 55 54 59 62 61 61 57 51 47 45 43 39 34 29 25 24 23 21 18 12 11 9 7 6 5 8 12 13
97 93 84 83 84 93 100 102 96 93 90 95 88 80 71 65 59 58 63 65 64 60 56 54 53 48 42 39 31 26 15 23 22 17 15 13 12 11 11 10 14 15 16
104 101 92 84 86 91 96 104 97 86 91 96 92 91 87 76 68 64 63 66 65 60 60 58 56 52 48 45 41 27 15 14 19 18 15 14 15 15 13 15 18 17 16
94 104 97 90 87 90 96 103 105 106 109 108 108 103 95 86 78 70 65 63 64 63 63 60 57 55 51 50 45 45 40 20 16 16 19 15 13 12 12 14 17 16 11
79 94 101 98 92 88 97 103 104 107 110 96 102 110 105 96 89 82 75 71 71 68 63 61 60 58 58 55 53 47 47 44 36 23 20 26 22 17 14 17 16 13 10
70 88 104 106 99 94 97 102 104 111 110 106 105 111 113 106 98 93 85 83 77 74 70 65 59 58 59 57 56 53 51 49 48 43 36 29 25 20 18 17 15 14 11
Wind_Direction_850mb
173 180 173 168 161 166 158 157 136 113 84 124 126 128 140 128 120 125 125 119 112 113 114 114 110 110 112 108 111 109 125 118 111 106 104 103 100 91 95 89 91 87 90
165 178 175 172 169 172 170 158 144 126 119 124 135 136 146 137 134 138 129 131 126 117 123 126 126 121 126 130 124 113 109 108 120 104 113 107 100 100 97 91 94 89 80
174 175 175 173 175 177 171 163 148 125 123 121 121 122 132 146 145 143 145 148 155 138 127 142 154 137 136 139 131 127 115 112 117 112 108 103 108 99 102 97 99 103 96
170 172 174 173 178 177 170 170 147 143 152 133 137 121 122 157 156 162 154 148 147 141 144 146 130 144 139 122 134 136 136 113 114 128 110 109 112 110 111 109 116 113 108
172 174 176 177 177 174 172 171 155 148 136 141 140 130 141 154 151 168 169 175 153 131 137 130 121 129 127 120 122 131 143 117 113 113 112 109 114 113 110 105 107 110 95
177 177 176 178 179 176 174 170 151 149 156 159 144 141 150 157 146 135 138 138 132 136 134 130 133 135 122 121 120 116 112 95 106 104 102 106 102 104 105 103 102 107 96
173 177 179 179 180 177 175 169 157 157 169 148 151 154 153 136 148 152 142 131 132 137 142 129 133 136 132 130 121 119 121 120 120 117 114 120 105 102 108 101 99 99 92
171 178 182 181 181 181 176 170 162 163 171 160 160 161 154 146 157 155 160 143 141 132 142 141 138 146 139 138 125 126 117 125 133 129 130 107 104 107 102 105 102 104 96
177 180 185 180 183 190 183 175 166 164 171 167 166 164 157 162 153 154 145 145 150 140 142 142 145 137 144 136 124 133 139 147 133 123 122 118 111 108 105 98 94 90 80
185 190 193 185 187 191 195 180 172 170 174 173 172 172 165 162 157 162 151 151 147 143 152 156 146 149 144 145 137 135 130 133 132 113 125 125 137 117 102 97 84 66 51
190 193 196 191 188 192 194 188 180 179 181 180 176 171 167 169 165 166 157 158 155 152 150 145 140 140 143 147 151 150 144 142 130 128 136 123 126 111 92 65 45 27 14
196 197 198 198 196 198 200 189 191 183 184 192 185 179 173 172 173 169 164 167 163 154 144 142 145 144 146 149 156 164 153 150 149 133 155 161 138 56 23 14 2 355 357
201 196 200 203 203 202 206 194 197 194 193 196 202 194 180 181 185 176 179 178 169 151 153 151 153 154 155 155 161 159 157 159 166 160 181 215 267 299 311 315 316 320 322
204 201 203 203 205 208 210 206 209 203 199 200 202 206 192 191 191 191 192 192 187 172 167 164 160 162 161 163 162 167 175 179 198 205 229 268 281 286 292 298 302 305 308
211 204 210 208 209 212 208 211 214 217 208 206 205 214 211 198 199 202 200 200 195 188 181 177 174 175 174 176 176 177 188 205 227 255 267 272 278 283 285 287 289 293 296
219 212 211 214 212 215 213 214 216 219 213 209 212 214 216 207 205 204 209 202 199 194 190 185 188 187 187 190 193 199 208 230 248 264 272 277 281 283 284 285 286 287 291
223 220 216 214 213 214 219 217 219 219 215 212 217 214 218 215 209 209 207 203 201 200 199 198 198 198 200 205 209 213 227 239 252 262 272 279 282 282 283 285 287 287 288
225 224 221 216 213 217 219 218 219 220 220 218 219 218 220 217 214 211 213 211 208 205 206 206 207 209 211 215 222 228 238 247 257 267 274 279 281 284 287 286 286 294 294
226 227 221 222 217 214 219 220 222 219 223 220 218 228 224 216 214 214 216 218 217 212 211 211 213 216 220 224 229 238 247 255 261 268 274 277 279 279 284 257 292 318 329
225 228 227 223 222 220 216 219 221 223 226 224 222 224 230 221 216 215 217 219 221 219 216 215 216 220 224 227 232 239 248 258 266 272 279 272 231 232 219 272 338 328 320
223 221 224 224 223 217 217 216 218 217 221 221 226 226 226 231 222 219 219 219 221 222 221 221 220 221 224 227 232 237 249 253 253 270 246 226 206 211 210 250 309 317 319
222 220 222 226 224 219 219 220 222 220 224 224 224 228 227 232 228 226 223 220 222 222 220 222 224 223 223 226 229 230 236 243 244 232 231 218 211 227 242 264 304 319 317
220 220 222 227 227 223 219 218 219 221 219 220 223 228 228 230 232 228 227 225 225 224 225 226 227 227 227 228 227 218 202 210 195 210 207 216 231 236 251 282 302 309 311
225 224 225 228 228 226 220 216 214 216 217 223 227 225 229 229 230 231 230 229 229 228 227 227 228 229 230 232 226 226 228 219 195 190 206 207 217 229 256 275 281 292 289
228 226 227 227 228 228 222 219 214 216 220 223 220 227 229 230 229 229 230 231 229 229 230 229 229 228 232 233 234 234 231 227 224 210 196 204 203 220 242 269 284 275 287
242 231 228 224 228 229 228 224 220 219 222 217 219 225 229 229 228 229 230 232 234 235 233 233 233 234 236 236 238 238 238 234 233 226 217 207 205 204 239 260 262 269 280